User: anonymous
Location: Mactaquac Provincial Park
(45.9573°N, 66.8897°W)
Time: 12:39:25
(UTC-03:00)
Language:

Cosmos 1766 - Orbit

View from above orbital plane
View from above orbital plane
View from above satellite
View from above satellite

Ground track
Ground track

The orbit data is extracted from the following two-line orbital elements,

1 16881U 86055A   14261.08752657  .00002646  00000-0  17976-3 0  9577
2 16881 082.5092 282.7952 0011289 257.5872 102.4092 15.05940431530181
Epoch (UTC): 18 September 2014 02:06:02
Eccentricity: 0.0011289
inclination: 82.5092°
perigee height: 541 km
apogee height: 556 km
right ascension of ascending node: 282.7952°
argument of perigee: 257.5872°
revolutions per day: 15.05940431
mean anomaly at epoch: 102.4092°
orbit number at epoch: 53018

The dashed part of the orbit path shows where the satellite is in the earth's shadow,  

DLR